[[{"header":{"parameterUnit":"m.s-1","parameterCategory":1,"la1":30.2991,"la2":30.254,"lo1":-89.0895,"lo2":-89.0444,"dy":0.0017,"dx":0.0017,"nx":28,"ny":28,"refTime":"2024-02-19T03:00:00:Z","depth":0,"parameterNumber":2,"parameterNumberName":"U-component_of_WINDS"},"data":[0,0,0,0,0,0,0,0,0,0,0,0,0,0,0,0,0,0,0,0,0,0,0,0,0,0,0,0,0,0,0,0,0,0,0,0,0,0,0,0,0,0,0,0,0,0,0,0,0,0,0,0,0,0,0,0,0,0,0.7187,0.7186,0,0.7152,0.7152,0.7151,0.7119,0.7119,0.7119,0.7118,0.7081,0.708,0.7079,0,0,0,0,0,0,0,0,0,0,0,0,0,0.7224,0.7224,0.7187,0.7186,0.7186,0.7152,0.7152,0.7151,0.712,0.7119,0.7119,0.7118,0.7081,0.708,0.7079,0,0,0,0,0,0,0,0,0,0,0,0,0,0.7201,0.7224,0.7187,0.7166,0.7164,0.7152,0.7152,0.7151,0.712,0.7119,0.7118,0.7118,0.7081,0.708,0.7079,0.7084,0,0,0.7076,0.7076,0,0,0,0,0,0,0,0,0.7202,0.7199,0.717,0.7168,0.7165,0.714,0.7151,0.7129,0.712,0.7136,0.7118,0.7118,0.71,0.7098,0.7093,0.7083,0.7081,0.7076,0.7075,0.7075,0.7075,0,0,0,0,0,0,0,0.7204,0.7201,0.7173,0.7169,0.7166,0.7158,0.7154,0.7147,0.7122,0.7135,0.7133,0.7129,0.7099,0.7094,0.7091,0.708,0.7076,0.7075,0.7075,0.7074,0.7073,0.7074,0,0,0,0,0,0,0.7209,0.7202,0.7174,0.7172,0.7183,0.7158,0.7153,0.7148,0.7122,0.7117,0.7129,0.7128,0.7095,0.7093,0.709,0.7094,0.7075,0.7074,0.7074,0.7073,0.7073,0.7074,0,0,0,0,0,0,0.721,0.7207,0.7176,0.7186,0.7182,0.7158,0.7152,0.7148,0.7142,0.7118,0.7113,0.7128,0.7095,0.7091,0.7086,0.7093,0.7074,0.7073,0.7072,0.7073,0.7074,0.7103,0,0,0,0,0,0,0.7211,0.7207,0.7209,0.7187,0.7181,0.7173,0.7153,0.7148,0.7141,0.7138,0.7116,0.7111,0.7094,0.7088,0.7085,0.7091,0.7072,0.7071,0.7072,0.7073,0.7102,0.7105,0.7108,0,0,0,0,0,0.7212,0.7218,0.7209,0.7206,0.7184,0.7173,0.717,0.7151,0.7142,0.7143,0.7128,0.7112,0.7093,0.7088,0.7084,0.709,0.7071,0.7072,0.7073,0.71,0.7104,0.7108,0,0,0,0,0,0,0.7241,0.7215,0.7205,0.7204,0.7191,0.7168,0.7169,0.7156,0.7145,0.7143,0.7119,0.7114,0.7112,0.71,0.7095,0.7094,0.708,0.708,0.7101,0.7105,0.7108,0.711,0.7071,0,0,0,0,0,0.7248,0.7242,0.7219,0.7221,0.7215,0.7194,0.7188,0.7175,0.716,0.7154,0.7138,0.7125,0.7115,0.7109,0.71,0.71,0.7095,0.7102,0.7106,0.7108,0.7109,0.7108,0.7111,0.7078,0.7078,0.7078,0,0,0.7261,0.7246,0.7243,0.7226,0.7215,0.7209,0.7189,0.7184,0.7179,0.7153,0.7148,0.7136,0.7118,0.7116,0.7115,0.7107,0.7117,0.711,0.7112,0.7111,0.711,0.7113,0.7116,0.7079,0.7079,0.7079,0,0,0.7281,0.7269,0.7269,0.7259,0.7242,0.7228,0.7228,0.7207,0.7198,0.7192,0.7173,0.7167,0.7151,0.714,0.7132,0.7149,0.7134,0.7147,0.7163,0.7163,0.7165,0.7168,0.7173,0.7176,0.7148,0.7148,0.7148,0,0.7299,0.729,0.7271,0.7267,0.726,0.7237,0.7237,0.7227,0.7208,0.7203,0.7195,0.7176,0.7162,0.7157,0.7162,0.7156,0.7155,0.7149,0.7167,0.7169,0.717,0.7176,0.7178,0.7149,0.7149,0.7149,0.7149,0,0.7313,0.7307,0.7309,0.7291,0.7285,0.7282,0.7262,0.7258,0.7245,0.7232,0.7226,0.721,0.7196,0.7194,0.7182,0.7187,0.7183,0.7171,0.7156,0.7176,0.718,0.7182,0.7152,0.7151,0.7151,0.715,0,0,0.7349,0.7322,0.7323,0.7315,0.7295,0.729,0.7287,0.7275,0.7271,0.7259,0.7255,0.7243,0.7232,0.7224,0.721,0.7209,0.7224,0.7197,0.7197,0.7202,0.7229,0.7238,0.724,0.7214,0.7215,0.7215,0.723,0,0.7366,0.7359,0.7342,0.7341,0.7335,0.7314,0.7311,0.7299,0.7287,0.7279,0.7266,0.7257,0.7244,0.7238,0.7238,0.7222,0.7229,0.7221,0.721,0.721,0.7214,0.7243,0.7251,0.7267,0.7232,0.7232,0.7232,0,0.7384,0.7374,0.7372,0.7353,0.735,0.7348,0.7335,0.7329,0.7315,0.7306,0.7297,0.7281,0.7276,0.7264,0.7256,0.7252,0.7246,0.7238,0.7238,0.7236,0.7222,0.724,0.7271,0.7273,0.7235,0.7235,0.7235,0,0.741,0.7396,0.7393,0.7387,0.7365,0.7364,0.7355,0.734,0.7334,0.7323,0.7318,0.7307,0.73,0.7291,0.7273,0.7266,0.7268,0.7254,0.726,0.726,0.726,0.726,0.729,0.7258,0.7258,0.7258,0.7258,0,0.743,0.743,0.7405,0.7403,0.7402,0.7382,0.7382,0.737,0.7357,0.7353,0.7334,0.733,0.7307,0.73,0.7286,0.7282,0.7279,0.7271,0.7267,0.7272,0.7273,0.7268,0.7266,0.7259,0.7259,0.7259,0.7258,0,0.7459,0.7442,0.7438,0.7418,0.7413,0.7413,0.7395,0.7392,0.738,0.7374,0.7371,0.7351,0.7342,0.7323,0.7309,0.7299,0.7298,0.7292,0.7304,0.7301,0.7308,0.7307,0.7334,0.7337,0.7304,0.7305,0.7305,0,0.7472,0.7472,0.7452,0.7448,0.7439,0.7433,0.7427,0.7408,0.7402,0.7386,0.7385,0.7375,0.7365,0.7352,0.7335,0.7324,0.7317,0.7327,0.7315,0.732,0.7316,0.7316,0.7316,0.733,0.733,0.733,0.7331,0,0.7498,0.749,0.7482,0.7471,0.7465,0.7455,0.7445,0.7443,0.7421,0.7415,0.7406,0.7399,0.7385,0.7375,0.7362,0.7352,0.7337,0.7335,0.7336,0.734,0.7347,0.7343,0.731,0.7334,0.7334,0.7333,0.7333,0.7333,0.7518,0.7517,0.7503,0.7495,0.7485,0.7476,0.7473,0.746,0.7452,0.744,0.7429,0.7421,0.7407,0.7388,0.7378,0.7371,0.7364,0.7366,0.7366,0.7366,0.7368,0.7349,0.7369,0.7369,0.7369,0.7369,0.7369,0,0.7542,0.7533,0.7526,0.7512,0.7506,0.7494,0.7482,0.7477,0.7471,0.7459,0.7451,0.744,0.7431,0.7414,0.7403,0.74,0.7394,0.7398,0.7398,0.7395,0.7375,0.7376,0.7404,0.7404,0.7404,0.7404,0.7404,0.7404,0.7554,0.7551,0.7541,0.7533,0.7523,0.7516,0.751,0.7501,0.7492,0.7482,0.7474,0.7463,0.7449,0.7437,0.7428,0.7423,0.7419,0.7426,0.7419,0.74,0.7397,0.7394,0.7394,0.7425,0.7425,0.7439,0.744,0.744]},{"header":{"parameterUnit":"m.s-1","parameterCategory":1,"la1":30.2991,"la2":30.254,"lo1":-89.0895,"lo2":-89.0444,"dy":0.0017,"dx":0.0017,"nx":28,"ny":28,"refTime":"2024-02-19T03:00:00:Z","depth":0,"parameterNumber":3,"parameterNumberName":"V-component_of_WINDS"},"data":[0,0,0,0,0,0,0,0,0,0,0,0,0,0,0,0,0,0,0,0,0,0,0,0,0,0,0,0,0,0,0,0,0,0,0,0,0,0,0,0,0,0,0,0,0,0,0,0,0,0,0,0,0,0,0,0,0,0,-4.8526,-4.8527,0,-4.8693,-4.8694,-4.8696,-4.8642,-4.8639,-4.8635,-4.8632,-4.8799,-4.8807,-4.8815,0,0,0,0,0,0,0,0,0,0,0,0,0,-4.8156,-4.8164,-4.8525,-4.8528,-4.853,-4.8692,-4.8694,-4.8697,-4.8643,-4.8639,-4.8634,-4.863,-4.8797,-4.8806,-4.8815,0,0,0,0,0,0,0,0,0,0,0,0,0,-4.8319,-4.8166,-4.8525,-4.8522,-4.8524,-4.8692,-4.8695,-4.8697,-4.8644,-4.8639,-4.8633,-4.8628,-4.8794,-4.8805,-4.8817,-4.8996,0,0,-4.8852,-4.8857,0,0,0,0,0,0,0,0,-4.831,-4.8333,-4.8521,-4.8523,-4.8525,-4.8641,-4.8626,-4.8797,-4.8645,-4.8598,-4.8632,-4.8626,-4.8751,-4.8766,-4.8809,-4.9004,-4.9011,-4.8853,-4.8861,-4.8866,-4.8869,0,0,0,0,0,0,0,-4.8299,-4.8325,-4.8591,-4.8524,-4.8526,-4.8512,-4.8529,-4.8658,-4.8702,-4.8602,-4.8598,-4.8619,-4.8751,-4.8798,-4.8812,-4.9014,-4.8853,-4.8864,-4.8871,-4.8875,-4.9363,-4.9369,0,0,0,0,0,0,-4.8287,-4.8316,-4.8586,-4.8596,-4.8402,-4.8523,-4.8542,-4.8609,-4.8701,-4.871,-4.8624,-4.8616,-4.878,-4.8799,-4.8818,-4.9034,-4.8865,-4.8876,-4.8883,-4.9358,-4.9365,-4.9371,0,0,0,0,0,0,-4.8279,-4.8312,-4.8579,-4.8456,-4.8489,-4.8535,-4.8611,-4.8615,-4.8662,-4.8717,-4.8725,-4.8663,-4.8777,-4.8802,-4.8952,-4.9039,-4.8882,-4.8892,-4.9351,-4.936,-4.9368,-4.9468,0,0,0,0,0,0,-4.8269,-4.8309,-4.8379,-4.8458,-4.8495,-4.8713,-4.8616,-4.8622,-4.8683,-4.8674,-4.8757,-4.8765,-4.8774,-4.8935,-4.8964,-4.9052,-4.8901,-4.9343,-4.9355,-4.9365,-4.9457,-4.9479,-4.9498,0,0,0,0,0,-4.8256,-4.8399,-4.8382,-4.8415,-4.8584,-4.8718,-4.8739,-4.8748,-4.869,-4.876,-4.8795,-4.8762,-4.9025,-4.8951,-4.8983,-4.9076,-4.9338,-4.9351,-4.9364,-4.9448,-4.9474,-4.9497,0,0,0,0,0,0,-4.8328,-4.841,-4.8392,-4.8565,-4.8635,-4.8708,-4.8797,-4.8776,-4.8863,-4.8852,-4.8858,-4.8877,-4.9032,-4.9069,-4.8985,-4.9254,-4.9172,-4.9193,-4.9225,-4.9251,-4.9271,-4.9259,-4.8911,0,0,0,0,0,-4.8365,-4.8468,-4.8533,-4.868,-4.8716,-4.875,-4.8809,-4.881,-4.8882,-4.8911,-4.8957,-4.9027,-4.9125,-4.919,-4.9283,-4.9461,-4.9478,-4.9541,-4.9561,-4.9578,-4.9596,-4.9692,-4.9721,-4.9415,-4.9415,-4.9415,0,0,-4.8441,-4.8498,-4.8562,-4.8696,-4.875,-4.8855,-4.8775,-4.8891,-4.8969,-4.8928,-4.9074,-4.911,-4.9188,-4.9354,-4.9429,-4.9389,-4.9684,-4.9595,-4.9608,-4.9617,-4.9709,-4.9738,-4.9764,-4.9424,-4.9423,-4.9421,0,0,-4.8633,-4.8687,-4.8815,-4.8871,-4.8955,-4.8977,-4.9007,-4.9084,-4.9107,-4.9253,-4.9225,-4.9317,-4.9486,-4.9543,-4.9594,-4.9808,-4.9781,-4.9838,-4.9945,-5.0039,-5.0063,-5.0084,-5.0161,-5.0188,-4.9855,-4.9855,-4.9856,0,-4.8717,-4.8876,-4.8883,-4.9002,-4.9061,-4.9029,-4.9159,-4.9212,-4.9321,-4.9362,-4.9317,-4.9528,-4.9579,-4.9757,-4.9809,-4.9851,-4.9886,-4.9829,-5.0059,-5.0081,-5.0101,-5.0174,-5.0202,-4.9862,-4.9861,-4.986,-4.986,0,-4.8975,-4.9086,-4.9179,-4.9286,-4.9356,-4.9479,-4.9504,-4.9573,-4.9568,-4.9594,-4.9743,-4.9802,-4.9907,-4.9949,-4.9945,-5.0127,-5.01,-5.0057,-4.9975,-5.0136,-5.0205,-5.0233,-4.9871,-4.9869,-4.9867,-4.9865,0,0,-4.9218,-4.9328,-4.9363,-4.9411,-4.95,-4.9585,-4.9706,-4.981,-4.9869,-4.9945,-5.0046,-5.019,-5.015,-5.0208,-5.021,-5.0292,-5.0458,-5.0239,-5.0241,-5.0278,-5.0662,-5.0694,-5.0726,-5.044,-5.0445,-5.045,-5.0655,0,-4.9419,-4.9633,-4.9643,-4.9837,-4.994,-4.9911,-5.0016,-5.0081,-5.0109,-5.0199,-5.0228,-5.033,-5.0271,-5.0306,-5.0386,-5.0421,-5.0535,-5.0406,-5.0533,-5.0538,-5.0516,-5.0762,-5.0797,-5.0988,-5.0682,-5.0687,-5.069,0,-4.9681,-4.9767,-4.9972,-5.0046,-5.009,-5.0184,-5.028,-5.0366,-5.0439,-5.0453,-5.0519,-5.0508,-5.063,-5.0544,-5.0712,-5.0624,-5.0676,-5.0701,-5.0709,-5.0721,-5.0624,-5.0782,-5.105,-5.1079,-5.0732,-5.0729,-5.0726,0,-4.9839,-5.0005,-5.0149,-5.0191,-5.0282,-5.0349,-5.0389,-5.0457,-5.0519,-5.0602,-5.0642,-5.0737,-5.079,-5.0863,-5.0878,-5.0814,-5.1047,-5.0961,-5.1061,-5.1061,-5.1112,-5.1109,-5.1393,-5.1145,-5.1145,-5.1144,-5.1144,0,-5.0062,-5.0188,-5.0221,-5.031,-5.0451,-5.046,-5.0598,-5.0634,-5.0695,-5.0789,-5.0769,-5.0857,-5.0872,-5.0963,-5.0975,-5.1113,-5.1136,-5.115,-5.1152,-5.1153,-5.1151,-5.1188,-5.1175,-5.1152,-5.115,-5.1149,-5.1148,0,-5.0262,-5.0289,-5.0444,-5.0517,-5.0539,-5.0639,-5.0701,-5.0786,-5.0811,-5.093,-5.0959,-5.0998,-5.1105,-5.1127,-5.1252,-5.126,-5.1424,-5.1412,-5.14,-5.1399,-5.1498,-5.1489,-5.1816,-5.1859,-5.1583,-5.1586,-5.1588,0,-5.0403,-5.05,-5.0583,-5.0646,-5.069,-5.0791,-5.0853,-5.0866,-5.0932,-5.1022,-5.1096,-5.12,-5.1285,-5.1456,-5.1495,-5.1591,-5.1582,-5.169,-5.1596,-5.1593,-5.1584,-5.1578,-5.1588,-5.1708,-5.1711,-5.1713,-5.1715,0,-5.065,-5.0658,-5.0751,-5.0848,-5.0924,-5.1001,-5.1074,-5.1125,-5.1147,-5.1222,-5.1332,-5.1397,-5.1526,-5.163,-5.1726,-5.1766,-5.1745,-5.1744,-5.1773,-5.1775,-5.1764,-5.1771,-5.145,-5.1737,-5.1735,-5.1733,-5.1732,-5.1731,-5.0825,-5.091,-5.0982,-5.1086,-5.1142,-5.121,-5.1294,-5.1329,-5.1421,-5.1528,-5.1529,-5.1649,-5.1718,-5.1845,-5.1891,-5.1984,-5.195,-5.1991,-5.2001,-5.2011,-5.2021,-5.1749,-5.2001,-5.2001,-5.2,-5.2,-5.1999,0,-5.1072,-5.1117,-5.1212,-5.1315,-5.1396,-5.1369,-5.1448,-5.1517,-5.1624,-5.1691,-5.1775,-5.19,-5.2001,-5.2047,-5.2146,-5.2212,-5.2204,-5.2237,-5.2233,-5.2242,-5.2045,-5.2011,-5.2242,-5.2242,-5.2242,-5.2241,-5.2241,-5.2241,-5.121,-5.1352,-5.1369,-5.1538,-5.1582,-5.17,-5.1748,-5.181,-5.1864,-5.2006,-5.209,-5.212,-5.2179,-5.2282,-5.2373,-5.2383,-5.2421,-5.2459,-5.2465,-5.2281,-5.2256,-5.2233,-5.2201,-5.2467,-5.2467,-5.2654,-5.2656,-5.2657]}]]